Location: Ffm
(50.0000°N, 8.5000°E)
Time: 08:12:37
(UTC+01:00)

Envisat - Pass Details

Date: 01 November 2020
Orbit: 764 x 766 km, 98.1° (Epoch: 03 December)

Event Time Altitude Azimuth Distance (km) Brightness Sun altitude
Rises 17:50:35 0° 179° (S) 3,219 6.4 -8.2°
Reaches altitude 10° 17:52:57 10° 184° (S) 2,298 5.7 -8.6°
Maximum altitude 17:57:53 51° 261° (W) 960 4.0 -9.4°
Drops below altitude 10° 18:02:51 10° 337° (NNW) 2,314 5.6 -10.2°
Sets 18:05:14 0° 343° (NNW) 3,245 6.3 -10.5°
